This is the latest recevied weather packets stored in our database for station/object K5MGY. If no packets are shown the sender has not sent any weather packets the latest 10 day(s).
| Time | Temp. | Humidity | Pressure | Rain* | Wind** | Luminosity | Snow |
|---|---|---|---|---|---|---|---|
| 1788464960 | 32.22° C | 61% | 1036.1 hPa | 0 mm | - | 322 W/m² | - |
| 1788464656 | 31.67° C | 63% | 1036.1 hPa | 0 mm | - | 318 W/m² | - |
| 1788464351 | 31.67° C | 63% | 1036.2 hPa | 0 mm | - | 327 W/m² | - |
| 1788464047 | 31.67° C | 62% | 1036.2 hPa | 0 mm | - | 264 W/m² | - |
| 1788463742 | 32.22° C | 61% | 1036.2 hPa | 0 mm | - | 322 W/m² | - |
| 1788463438 | 31.67° C | 63% | 1036.3 hPa | 0 mm | - | 323 W/m² | - |
| 1788463134 | 31.67° C | 63% | 1036.6 hPa | 0 mm | - | 338 W/m² | - |
| 1788462830 | 31.11° C | 65% | 1036.4 hPa | 0 mm | - | 343 W/m² | - |
| 1788462529 | 31.11° C | 66% | 1036.4 hPa | 0 mm | - | 301 W/m² | - |
| 1788462224 | 31.11° C | 66% | 1036.6 hPa | 0 mm | - | 396 W/m² | - |
| 1788461923 | 30.56° C | 66% | 1036.6 hPa | 0 mm | - | 554 W/m² | - |
| 1788461618 | 30.56° C | 68% | 1037.1 hPa | 0 mm | - | 317 W/m² | - |
| 1788461314 | 30.56° C | 67% | 1037.3 hPa | 0 mm | - | 387 W/m² | - |
| 1788461011 | 30.56° C | 68% | 1037.4 hPa | 0 mm | - | 249 W/m² | - |
| 1788460705 | 30.56° C | 68% | 1037.4 hPa | 0 mm | - | 258 W/m² | - |
| 1788460400 | 30.56° C | 68% | 1037.3 hPa | 0 mm | - | 256 W/m² | - |
| 1788460100 | 30° C | 69% | 1037.4 hPa | 0 mm | - | 261 W/m² | - |
| 1788459794 | 30° C | 69% | 1037.4 hPa | 0 mm | - | 251 W/m² | - |
| 1788459493 | 30° C | 70% | 1037.5 hPa | 0 mm | - | 196 W/m² | - |
| 1788459188 | 30° C | 70% | 1037.3 hPa | 0 mm | - | 225 W/m² | - |
| 1788458883 | 30° C | 69% | 1037.5 hPa | 0 mm | - | 205 W/m² | - |
| 1788458582 | 30° C | 69% | 1037.7 hPa | 0 mm | - | 229 W/m² | - |
| 1788458282 | 30° C | 71% | 1037.7 hPa | 0 mm | - | 415 W/m² | - |
| 1788457981 | 30° C | 71% | 1037.7 hPa | 0 mm | - | 208 W/m² | - |
| 1788457681 | 30° C | 70% | 1037.7 hPa | 0 mm | - | 214 W/m² | - |
* Rain latest hour (hover to see other rain measurements)
** Current wind speed in m/s (hover to see current wind gust speed)